GW6314 Weather Reports


time (UTC)temp
F
wind
direction
speed
knots
gust
knots
rain 1hr
in
rain 24hr
in
rain mn
in
humidity
%
barometer
mb
20260906234855 73 188 11.3 14.8 0.00 0.00 0.00 37 1023.8
20260906234356 73 181 12.2 16.5 0.00 0.00 0.00 38 1023.8
20260906233856 73 184 19.1 21.7 0.00 0.00 0.00 36 1024.2
20260906233355 73 219 12.2 21.7 0.00 0.00 0.00 36 1024.2
20260906232850 73 218 14.8 19.1 0.00 0.00 0.00 37 1023.9
20260906232349 73 203 13.9 16.5 0.00 0.00 0.00 37 1023.9
20260906231844 73 208 18.2 20.0 0.00 0.00 0.00 36 1024.2
20260906231339 73 176 12.2 14.8 0.00 0.00 0.00 37 1024.1
20260906230838 73 183 11.3 15.6 0.00 0.00 0.00 38 1024.1
20260906230334 73 186 13.9 20.0 0.00 0.00 0.00 38 1024.1
20260906225832 73 187 11.3 13.0 0.00 0.00 0.00 37 1024.2
20260906225328 73 198 9.6 13.0 0.00 0.00 0.00 37 1024.5
20260906224823 73 198 9.6 12.2 0.00 0.00 0.00 36 1024.8
20260906224320 74 196 7.8 16.5 0.00 0.00 0.00 38 1024.8
20260906223816 74 181 11.3 15.6 0.00 0.00 0.00 36 1024.7
20260906223312 74 212 8.7 13.0 0.00 0.00 0.00 35 1024.8
20260906222809 74 206 13.0 18.2 0.00 0.00 0.00 34 1024.7
20260906222308 74 193 13.9 16.5 0.00 0.00 0.00 34 1024.8
20260906221806 74 196 13.0 14.8 0.00 0.00 0.00 34 1024.8
20260906221301 74 216 14.8 19.1 0.00 0.00 0.00 33 1024.9
20260906220757 74 198 14.8 19.1 0.00 0.00 0.00 35 1024.8
20260906220251 74 204 13.0 16.5 0.00 0.00 0.00 36 1025.0
20260906215751 74 209 13.9 18.2 0.00 0.00 0.00 35 1025.0
20260906215250 73 205 12.2 14.8 0.00 0.00 0.00 36 1024.8
20260906214749 74 244 12.2 18.2 0.00 0.00 0.00 37 1025.1
20260906214244 73 219 14.8 23.5 0.00 0.00 0.00 36 1025.0
20260906213743 73 203 17.4 22.6 0.00 0.00 0.00 38 1025.0
20260906213243 73 197 14.8 20.9 0.00 0.00 0.00 34 1025.0
20260906212740 73 206 21.7 23.5 0.00 0.00 0.00 34 1024.7
20260906212236 73 183 14.8 20.0 0.00 0.00 0.00 37 1025.0
20260906211735 73 184 11.3 15.6 0.00 0.00 0.00 36 1025.0
20260906211231 74 207 18.2 23.5 0.00 0.00 0.00 33 1025.4
20260906210726 74 193 20.9 27.8 0.00 0.00 0.00 33 1025.3
20260906210221 74 204 20.9 23.5 0.00 0.00 0.00 35 1025.4
20260906205716 74 202 15.6 22.6 0.00 0.00 0.00 33 1025.3
20260906205212 73 192 13.9 22.6 0.00 0.00 0.00 34 1025.5
20260906204707 73 189 16.5 22.6 0.00 0.00 0.00 36 1025.3
20260906204206 73 196 16.5 21.7 0.00 0.00 0.00 33 1025.4
20260906203706 73 217 18.2 20.0 0.00 0.00 0.00 35 1025.7
20260906203201 73 189 18.2 23.5 0.00 0.00 0.00 33 1025.6
20260906202658 73 204 11.3 19.1 0.00 0.00 0.00 37 1025.5
20260906202157 73 207 16.5 21.7 0.00 0.00 0.00 33 1025.9
20260906201653 73 206 20.0 22.6 0.00 0.00 0.00 35 1025.7
20260906201151 73 210 18.2 26.9 0.00 0.00 0.00 35 1025.7
20260906200648 73 189 16.5 21.7 0.00 0.00 0.00 34 1025.7
20260906200143 73 205 20.0 25.2 0.00 0.00 0.00 32 1025.6
20260906195638 73 200 23.5 26.9 0.00 0.00 0.00 34 1025.7
20260906195135 73 208 16.5 26.9 0.00 0.00 0.00 35 1025.7
20260906194631 73 187 20.0 25.2 0.00 0.00 0.00 35 1025.6
20260906194126 73 188 21.7 26.9 0.00 0.00 0.00 36 1025.7
20260906193626 73 194 21.7 28.7 0.00 0.00 0.00 37 1025.9
20260906193121 73 188 23.5 29.5 0.00 0.00 0.00 32 1025.9
20260906192617 73 218 14.8 27.8 0.00 0.00 0.00 33 1025.9
20260906192115 73 207 26.9 31.3 0.00 0.00 0.00 31 1025.7
20260906191611 73 200 25.2 27.8 0.00 0.00 0.00 34 1026.0
20260906191111 73 197 22.6 28.7 0.00 0.00 0.00 30 1025.7
20260906190610 74 204 20.9 27.8 0.00 0.00 0.00 34 1026.1
20260906190105 73 203 18.2 27.8 0.00 0.00 0.00 32 1026.3
20260906185604 73 227 16.5 26.9 0.00 0.00 0.00 34 1026.0
20260906185103 73 205 20.9 23.5 0.00 0.00 0.00 32 1026.0
20260906184558 72 207 16.5 23.5 0.00 0.00 0.00 35 1026.0
20260906184054 72 186 20.0 27.8 0.00 0.00 0.00 30 1026.1
20260906183550 73 202 23.5 27.8 0.00 0.00 0.00 34 1026.1
20260906183046 73 219 23.5 26.9 0.00 0.00 0.00 30 1026.1
20260906182546 73 173 19.1 25.2 0.00 0.00 0.00 33 1026.2
20260906182042 73 187 18.2 22.6 0.00 0.00 0.00 31 1026.3
20260906181537 73 205 23.5 28.7 0.00 0.00 0.00 30 1026.5
20260906181033 73 200 23.5 26.1 0.00 0.00 0.00 31 1026.5
20260906180528 73 192 16.5 27.8 0.00 0.00 0.00 29 1026.3
20260906180027 73 182 16.5 22.6 0.00 0.00 0.00 34 1026.2
20260906175526 73 208 17.4 23.5 0.00 0.00 0.00 31 1026.5
20260906175026 72 191 17.4 21.7 0.00 0.00 0.00 33 1026.3
20260906174524 73 203 21.7 23.5 0.00 0.00 0.00 32 1026.7
20260906174019 72 197 14.8 20.9 0.00 0.00 0.00 36 1026.6
20260906173514 72 176 17.4 20.0 0.00 0.00 0.00 33 1026.7
20260906173010 72 194 20.9 22.6 0.00 0.00 0.00 29 1027.1
20260906172505 72 202 17.4 20.0 0.00 0.00 0.00 34 1026.8
20260906172000 72 188 19.1 20.9 0.00 0.00 0.00 31 1026.6
20260906171454 72 217 16.5 20.0 0.00 0.00 0.00 33 1026.7
20260906170950 72 183 21.7 23.5 0.00 0.00 0.00 32 1026.8
20260906170446 72 187 15.6 21.7 0.00 0.00 0.00 36 1026.9
20260906165943 72 217 13.9 25.2 0.00 0.00 0.00 34 1026.9
20260906165442 71 184 13.9 18.2 0.00 0.00 0.00 37 1027.2
20260906164937 71 190 17.4 19.1 0.00 0.00 0.00 34 1027.1
20260906164436 71 184 15.6 20.9 0.00 0.00 0.00 34 1027.2
20260906163933 71 205 14.8 20.9 0.00 0.00 0.00 36 1027.3
20260906163428 70 188 19.1 20.0 0.00 0.00 0.00 35 1027.3
20260906162926 70 186 18.2 23.5 0.00 0.00 0.00 39 1027.1
20260906162425 70 185 20.0 22.6 0.00 0.00 0.00 39 1027.3
20260906161920 70 195 19.1 23.5 0.00 0.00 0.00 36 1027.3
20260906161419 70 182 20.9 21.7 0.00 0.00 0.00 38 1027.3
20260906160919 70 156 18.2 21.7 0.00 0.00 0.00 38 1027.1
20260906160412 70 172 19.1 22.6 0.00 0.00 0.00 36 1027.3
20260906155911 70 181 21.7 23.5 0.00 0.00 0.00 35 1027.4
20260906155404 70 188 16.5 20.0 0.00 0.00 0.00 39 1027.3
20260906154901 69 174 13.9 18.2 0.00 0.00 0.00 40 1027.5
20260906154355 70 183 12.2 18.2 0.00 0.00 0.00 40 1027.4
20260906153854 69 179 13.0 16.5 0.00 0.00 0.00 36 1027.4
20260906153353 65 196 7.0 8.7 0.00 0.00 0.00 44 1027.7
20260906152849 66 199 7.0 7.8 0.00 0.00 0.00 44 1027.7
20260906152348 68 195 4.3 5.2 0.00 0.00 0.00 40 1027.9
20260906151848 68 155 0.9 0.9 0.00 0.00 0.00 37 1027.9
20260906151344 66 149 0.0 0.9 0.00 0.00 0.00 40 1028.0
20260906150839 66 217 0.9 2.6 0.00 0.00 0.00 39 1028.0
20260906150335 66 0 2.6 2.6 0.00 0.00 0.00 39 1027.8
20260906145834 65 179 0.0 0.9 0.00 0.00 0.00 42 1027.9
20260906145332 65 165 0.9 1.7 0.00 0.00 0.00 42 1027.7
20260906144828 65 200 0.0 0.0 0.00 0.00 0.00 43 1027.8
20260906144323 64 185 0.0 0.0 0.00 0.00 0.00 48 1027.8
20260906143822 64 100 0.9 1.7 0.00 0.00 0.00 50 1027.7
20260906143319 63 163 0.0 0.0 0.00 0.00 0.00 54 1028.0
20260906142814 62 249 0.9 1.7 0.00 0.00 0.00 51 1027.8
20260906142309 61 96 0.9 1.7 0.00 0.00 0.00 47 1027.7
20260906141808 60 110 0.9 2.6 0.00 0.00 0.00 46 1027.7
20260906141303 59 6 1.7 2.6 0.00 0.00 0.00 49 1027.9
20260906140802 59 79 1.7 1.7 0.00 0.00 0.00 51 1027.7
20260906140257 58 210 0.0 1.7 0.00 0.00 0.00 48 1027.7
20260906135754 57 244 0.0 3.5 0.00 0.00 0.00 56 1027.7
20260906135250 57 24 3.5 3.5 0.00 0.00 0.00 55 1027.9
20260906134745 58 22 2.6 3.5 0.00 0.00 0.00 53 1027.7
20260906134240 58 3 2.6 2.6 0.00 0.00 0.00 49 1027.5
20260906133736 57 104 0.9 1.7 0.00 0.00 0.00 51 1027.7
20260906133231 56 178 0.0 0.0 0.00 0.00 0.00 51 1027.9
20260906132726 55 192 0.0 0.0 0.00 0.00 0.00 57 1027.8
20260906132222 56 203 0.0 0.0 0.00 0.00 0.00 52 1027.7
20260906131717 55 7 1.7 2.6 0.00 0.00 0.00 55 1027.7
20260906131212 55 301 1.7 1.7 0.00 0.00 0.00 51 1027.4
20260906130708 56 358 1.7 2.6 0.00 0.00 0.00 52 1027.5
20260906130203 56 240 0.9 1.7 0.00 0.00 0.00 52 1027.3
20260906125701 55 239 0.9 0.9 0.00 0.00 0.00 54 1027.3
20260906125200 55 242 0.9 1.7 0.00 0.00 0.00 50 1027.5
20260906124655 55 207 0.0 0.0 0.00 0.00 0.00 53 1027.4
20260906124150 55 211 0.0 0.0 0.00 0.00 0.00 53 1027.3
20260906123649 55 172 0.9 0.9 0.00 0.00 0.00 55 1027.5
20260906123145 56 204 0.0 0.0 0.00 0.00 0.00 55 1027.4
20260906122644 56 285 1.7 1.7 0.00 0.00 0.00 51 1027.7
20260906122139 55 276 0.9 0.9 0.00 0.00 0.00 54 1027.3
20260906121635 56 201 0.0 0.0 0.00 0.00 0.00 53 1027.4
20260906121132 56 204 0.0 0.0 0.00 0.00 0.00 54 1027.5
20260906120627 56 210 0.0 0.0 0.00 0.00 0.00 54 1027.5
20260906120125 56 213 0.0 0.0 0.00 0.00 0.00 51 1027.5
20260906115625 57 193 0.0 0.0 0.00 0.00 0.00 50 1027.7
20260906115120 56 243 0.0 0.0 0.00 0.00 0.00 51 1027.4
20260906114619 56 198 0.0 0.0 0.00 0.00 0.00 53 1027.5
20260906114115 56 150 0.0 0.9 0.00 0.00 0.00 57 1027.5
20260906113614 56 214 0.9 0.9 0.00 0.00 0.00 56 1027.5
20260906113109 56 180 0.0 0.9 0.00 0.00 0.00 48 1027.7
20260906112609 56 238 1.7 1.7 0.00 0.00 0.00 51 1027.4
20260906112105 57 347 0.9 2.6 0.00 0.00 0.00 50 1027.8
20260906111605 59 340 2.6 3.5 0.00 0.00 0.00 45 1027.8
20260906111100 59 294 1.7 2.6 0.00 0.00 0.00 43 1027.8
20260906110600 59 335 2.6 2.6 0.00 0.00 0.00 44 1027.7
20260906110100 59 314 3.5 3.5 0.00 0.00 0.00 44 1027.7
20260906105554 58 228 0.9 0.9 0.00 0.00 0.00 46 1027.3
20260906105051 58 212 0.0 1.7 0.00 0.00 0.00 46 1027.3
20260906104549 58 311 3.5 3.5 0.00 0.00 0.00 45 1027.4
20260906104044 57 339 3.5 3.5 0.00 0.00 0.00 49 1027.4
20260906103542 57 348 3.5 3.5 0.00 0.00 0.00 54 1027.5
20260906103037 57 300 0.9 1.7 0.00 0.00 0.00 53 1027.4
20260906102538 57 208 0.0 1.7 0.00 0.00 0.00 55 1027.7
20260906102033 58 96 0.0 1.7 0.00 0.00 0.00 51 1027.5
20260906101533 58 198 0.0 0.0 0.00 0.00 0.00 49 1027.4
20260906101027 59 210 0.0 0.0 0.00 0.00 0.00 47 1027.4
20260906100524 59 204 0.0 0.0 0.00 0.00 0.00 47 1027.3
20260906100023 59 230 0.9 1.7 0.00 0.00 0.00 46 1027.4
20260906095518 60 343 3.5 5.2 0.00 0.00 0.00 46 1027.3
20260906095014 61 247 1.7 1.7 0.00 0.00 0.00 46 1027.2
20260906094512 60 243 0.9 0.9 0.00 0.00 0.00 46 1027.1
20260906094008 60 310 3.5 3.5 0.00 0.00 0.00 47 1027.3
20260906093504 62 306 2.6 3.5 0.00 0.00 0.00 44 1027.1
20260906092959 63 143 1.7 1.7 0.00 0.00 0.00 44 1027.1
20260906092459 61 216 1.7 2.6 0.00 0.00 0.00 46 1027.1
20260906091954 60 223 0.9 2.6 0.00 0.00 0.00 46 1027.2
20260906091450 61 255 5.2 5.2 0.00 0.00 0.00 46 1027.2
20260906090947 61 192 0.9 1.7 0.00 0.00 0.00 46 1027.1
20260906090441 61 231 1.7 1.7 0.00 0.00 0.00 46 1027.1
20260906085941 62 195 1.7 2.6 0.00 0.00 0.00 44 1027.2
20260906085440 63 150 0.0 0.9 0.00 0.00 0.00 44 1027.2
20260906084940 63 121 1.7 3.5 0.00 0.00 0.00 42 1027.1
20260906084435 62 186 1.7 2.6 0.00 0.00 0.00 43 1027.2
20260906083933 61 183 1.7 1.7 0.00 0.00 0.00 46 1027.1
20260906083430 61 219 0.9 1.7 0.00 0.00 0.00 43 1027.1
20260906082929 61 216 1.7 1.7 0.00 0.00 0.00 45 1027.2
20260906082424 62 223 0.9 0.9 0.00 0.00 0.00 45 1027.1
20260906081920 62 195 0.0 0.9 0.00 0.00 0.00 43 1027.2
20260906081415 64 192 0.0 1.7 0.00 0.00 0.00 42 1027.1
20260906080911 64 130 1.7 3.5 0.00 0.00 0.00 41 1027.2
20260906080408 63 160 0.9 1.7 0.00 0.00 0.00 43 1027.4
20260906075906 62 114 0.9 2.6 0.00 0.00 0.00 43 1027.2
20260906075401 63 236 0.9 2.6 0.00 0.00 0.00 43 1027.2
20260906074857 64 119 1.7 3.5 0.00 0.00 0.00 42 1027.1
20260906074356 62 142 2.6 3.5 0.00 0.00 0.00 43 1027.2
20260906073855 63 267 1.7 2.6 0.00 0.00 0.00 39 1027.2
20260906073350 63 183 1.7 1.7 0.00 0.00 0.00 46 1026.9
20260906072847 63 172 0.9 0.9 0.00 0.00 0.00 45 1027.1
20260906072342 63 193 0.0 0.0 0.00 0.00 0.00 43 1027.2
20260906071838 62 169 0.9 1.7 0.00 0.00 0.00 43 1027.2
20260906071333 63 9 1.7 1.7 0.00 0.00 0.00 43 1027.2
20260906070829 63 132 2.6 3.5 0.00 0.00 0.00 47 1027.2
20260906070325 64 154 0.9 1.7 0.00 0.00 0.00 45 1027.3
20260906065820 63 160 0.9 1.7 0.00 0.00 0.00 41 1026.9
20260906065315 62 191 0.0 0.9 0.00 0.00 0.00 42 1027.2
20260906064811 63 161 0.0 0.9 0.00 0.00 0.00 48 1026.8
20260906064307 63 204 0.0 1.7 0.00 0.00 0.00 47 1027.2
20260906063806 62 163 0.9 1.7 0.00 0.00 0.00 50 1027.1
20260906063302 62 181 0.9 0.9 0.00 0.00 0.00 46 1027.1
20260906062757 62 211 0.0 0.0 0.00 0.00 0.00 45 1027.2
20260906062256 62 170 0.0 0.9 0.00 0.00 0.00 44 1026.8
20260906061752 63 252 0.9 1.7 0.00 0.00 0.00 43 1027.2
20260906061248 63 120 1.7 1.7 0.00 0.00 0.00 45 1027.2
20260906060743 63 174 0.0 0.9 0.00 0.00 0.00 43 1026.9
20260906060241 63 134 0.9 1.7 0.00 0.00 0.00 43 1027.1
20260906055736 63 150 0.0 0.9 0.00 0.00 0.00 43 1026.8
20260906055231 62 159 0.9 1.7 0.00 0.00 0.00 43 1026.9
20260906054726 63 346 2.6 3.5 0.00 0.00 0.00 41 1026.8
20260906054222 65 11 2.6 3.5 0.00 0.00 0.00 41 1026.9
20260906053718 66 199 2.6 2.6 0.00 0.00 0.00 46 1026.9
20260906053213 65 205 3.5 3.5 0.00 0.00 0.00 38 1026.9
20260906052708 65 208 3.5 3.5 0.00 0.00 0.00 37 1026.9
20260906052205 65 192 2.6 2.6 0.00 0.00 0.00 35 1026.9
20260906051702 66 211 0.9 2.6 0.00 0.00 0.00 34 1026.9
20260906051200 66 207 2.6 3.5 0.00 0.00 0.00 32 1026.9
20260906050656 66 210 1.7 3.5 0.00 0.00 0.00 31 1027.2
20260906050151 66 191 4.3 6.1 0.00 0.00 0.00 33 1027.1
20260906045649 66 201 4.3 5.2 0.00 0.00 0.00 40 1026.9
20260906045145 67 184 4.3 5.2 0.00 0.00 0.00 38 1027.1
20260906044641 67 190 4.3 5.2 0.00 0.00 0.00 32 1026.9
20260906044136 68 202 3.5 5.2 0.00 0.00 0.00 36 1027.2
20260906043632 67 206 4.3 5.2 0.00 0.00 0.00 31 1027.1
20260906043127 67 217 0.9 1.7 0.00 0.00 0.00 30 1027.1
20260906042627 68 197 3.5 3.5 0.00 0.00 0.00 29 1026.9
20260906042122 68 190 2.6 3.5 0.00 0.00 0.00 31 1026.8
20260906041618 68 194 3.5 3.5 0.00 0.00 0.00 28 1026.8
20260906041118 69 212 1.7 5.2 0.00 0.00 0.00 30 1026.8
20260906040613 68 199 4.3 6.1 0.00 0.00 0.00 27 1026.8
20260906040109 68 211 2.6 3.5 0.00 0.00 0.00 29 1026.7
20260906035604 68 214 2.6 3.5 0.00 0.00 0.00 29 1026.7
20260906035059 66 198 3.5 5.2 0.00 0.00 0.00 32 1026.7
20260906034559 66 200 1.7 2.6 0.00 0.00 0.00 37 1026.7
20260906034054 67 186 0.0 0.0 0.00 0.00 0.00 34 1026.6
20260906033549 67 205 0.9 1.7 0.00 0.00 0.00 32 1026.3
20260906033045 66 186 1.7 2.6 0.00 0.00 0.00 32 1026.6
20260906032541 66 200 0.0 0.0 0.00 0.00 0.00 33 1026.5
20260906032036 67 257 0.9 1.7 0.00 0.00 0.00 37 1026.5
20260906031531 69 208 0.0 0.9 0.00 0.00 0.00 29 1026.3
20260906031027 70 207 1.7 1.7 0.00 0.00 0.00 25 1026.3
20260906030526 70 193 3.5 3.5 0.00 0.00 0.00 24 1026.2
20260906030026 71 207 3.5 3.5 0.00 0.00 0.00 24 1026.5
20260906025526 71 195 3.5 5.2 0.00 0.00 0.00 24 1026.2
20260906025024 70 200 3.5 3.5 0.00 0.00 0.00 25 1026.1
20260906024519 69 211 1.7 3.5 0.00 0.00 0.00 26 1025.9
20260906024019 70 204 0.0 0.0 0.00 0.00 0.00 28 1025.7
20260906023516 71 188 0.9 1.7 0.00 0.00 0.00 26 1025.7
20260906023010 71 195 0.9 2.6 0.00 0.00 0.00 25 1025.5
20260906022506 72 185 1.7 1.7 0.00 0.00 0.00 25 1025.6
20260906022001 72 185 1.7 2.6 0.00 0.00 0.00 25 1025.3
20260906021455 73 151 2.6 3.5 0.00 0.00 0.00 26 1025.3
20260906020950 73 165 1.7 2.6 0.00 0.00 0.00 26 1025.4
20260906020444 73 151 1.7 1.7 0.00 0.00 0.00 26 1025.3
20260906015944 73 184 1.7 1.7 0.00 0.00 0.00 26 1025.0
20260906015443 73 147 1.7 1.7 0.00 0.00 0.00 26 1025.1
20260906014943 73 146 2.6 2.6 0.00 0.00 0.00 24 1025.5
20260906014438 74 157 1.7 1.7 0.00 0.00 0.00 26 1025.4
20260906013934 74 151 0.9 2.6 0.00 0.00 0.00 25 1025.4
20260906013429 74 192 0.0 0.0 0.00 0.00 0.00 22 1025.4
20260906012925 74 196 0.0 0.0 0.00 0.00 0.00 22 1025.4
20260906012425 75 204 0.9 1.7 0.00 0.00 0.00 23 1025.4
20260906011924 76 201 1.7 2.6 0.00 0.00 0.00 21 1025.6
20260906011419 77 217 2.6 3.5 0.00 0.00 0.00 21 1025.3
20260906010915 77 207 1.7 3.5 0.00 0.00 0.00 20 1025.4
20260906010410 77 209 1.7 3.5 0.00 0.00 0.00 21 1025.5
20260906005906 78 200 3.5 5.2 0.00 0.00 0.00 19 1025.6
20260906005405 78 202 1.7 3.5 0.00 0.00 0.00 20 1025.5
20260906004904 78 207 3.5 7.0 0.00 0.00 0.00 20 1025.3
20260906004359 78 192 4.3 8.7 0.00 0.00 0.00 20 1025.3
20260906003854 78 193 3.5 7.8 0.00 0.00 0.00 19 1025.5
20260906003349 79 206 9.6 14.8 0.00 0.00 0.00 22 1025.7
20260906002845 78 230 5.2 7.0 0.00 0.00 0.00 18 1025.4
20260906002344 79 215 7.0 9.6 0.00 0.00 0.00 19 1025.4
20260906001840 79 200 3.5 8.7 0.00 0.00 0.00 19 1025.5
20260906001335 80 200 4.3 7.8 0.00 0.00 0.00 20 1025.3
20260906000830 79 256 2.6 6.1 0.00 0.00 0.00 19 1025.3
20260906000326 80 193 5.2 8.7 0.00 0.00 0.00 20 1025.3
20260905235820 80 217 4.3 11.3 0.00 0.00 0.00 20 1025.3
20260905235320 79 206 4.3 12.2 0.00 0.00 0.00 21 1025.3